{"data":{"norad_id":67591,"epoch":"2026-05-25T02:55:10.165152Z","epoch_age_seconds":57780,"freshness":"FRESH","line1":"1 67591U 26018C   26145.12164543  .00025920  00000+0  80194-3 0  9991","line2":"2 67591  97.2854 210.1917 0001620  84.8801 275.2627 15.33465182 19047","mean_motion":15.33465182,"eccentricity":0.000162,"inclination_deg":97.2854,"raan_deg":210.1917,"arg_perigee_deg":84.8801,"mean_anomaly_deg":275.2627,"bstar":0.00080194,"rev_number":1904,"period_min":93.904968753311,"perigee_km":464.37446124326,"apogee_km":466.59179416464,"semimajor_km":6843.6201277039,"source":"CELESTRAK","updated_at":"2026-05-25T13:38:21.619421Z"}}